Radiation Dose at Monitoring Post of Fukushima Daini Nuclear Power Station
Date,Time,MP-1(microSv/h),MP-2(microSv/h),MP-3(microSv/h),MP-4(microSv/h),MP-5(microSv/h),MP-6(microSv/h),MP-7(microSv/h),Wind Direction,Wind Velocity(m/s),Rain
2022/01/14,00:00,0.156,0.146,0.226,0.220,0.225,0.123,0.079,west-northwest,16.2,No
2022/01/14,00:10,0.157,0.145,0.225,0.221,0.225,0.123,0.079,west-northwest,12.4,No
2022/01/14,00:20,0.157,0.146,0.226,0.220,0.226,0.124,0.079,west-northwest,11.4,No
2022/01/14,00:30,0.157,0.146,0.226,0.222,0.225,0.124,0.079,west,13.7,No
2022/01/14,00:40,0.157,0.147,0.226,0.221,0.225,0.124,0.080,west,11.9,No
2022/01/14,00:50,0.157,0.146,0.227,0.220,0.225,0.125,0.080,west-northwest,11.3,No
2022/01/14,01:00,0.157,0.147,0.226,0.221,0.226,0.125,0.079,west-northwest,11.3,No
2022/01/14,01:10,0.156,0.147,0.225,0.223,0.225,0.124,0.080,west,10.5,No
2022/01/14,01:20,0.157,0.146,0.227,0.221,0.226,0.124,0.079,west-northwest,10.8,No
2022/01/14,01:30,0.158,0.146,0.226,0.221,0.225,0.124,0.079,west-northwest,9.2,No
2022/01/14,01:40,0.158,0.146,0.226,0.221,0.225,0.124,0.079,west-northwest,10.5,No
2022/01/14,01:50,0.157,0.146,0.227,0.221,0.226,0.124,0.080,west-northwest,9.8,No
2022/01/14,02:00,0.157,0.145,0.226,0.221,0.224,0.124,0.080,west-northwest,6.5,No
2022/01/14,02:10,0.157,0.147,0.226,0.221,0.224,0.125,0.079,west-northwest,6.2,No
2022/01/14,02:20,0.157,0.147,0.226,0.221,0.225,0.125,0.079,west-northwest,6.6,No
2022/01/14,02:30,0.157,0.146,0.226,0.220,0.224,0.124,0.079,west,6.6,No
2022/01/14,02:40,0.157,0.147,0.228,0.221,0.225,0.125,0.079,west-southwest,6.1,No
2022/01/14,02:50,0.157,0.146,0.226,0.221,0.224,0.124,0.080,west-southwest,8.7,No
2022/01/14,03:00,0.156,0.147,0.225,0.220,0.225,0.124,0.079,west,7.9,No
2022/01/14,03:10,0.157,0.146,0.226,0.220,0.224,0.124,0.079,west,6.7,No
2022/01/14,03:20,0.157,0.146,0.225,0.220,0.225,0.124,0.079,west,8.2,No
2022/01/14,03:30,0.157,0.146,0.226,0.220,0.225,0.125,0.078,west,7.7,No
2022/01/14,03:40,0.157,0.146,0.225,0.220,0.225,0.124,0.079,west-northwest,6.0,No
2022/01/14,03:50,0.157,0.146,0.225,0.221,0.225,0.123,0.079,west,7.4,No
2022/01/14,04:00,0.157,0.146,0.225,0.220,0.223,0.124,0.079,west,10.2,No
2022/01/14,04:10,0.156,0.145,0.224,0.219,0.224,0.124,0.079,west-northwest,12.7,No
2022/01/14,04:20,0.156,0.147,0.225,0.219,0.224,0.125,0.079,west-northwest,11.5,No
2022/01/14,04:30,0.156,0.146,0.225,0.220,0.225,0.124,0.079,west-northwest,10.3,No
2022/01/14,04:40,0.156,0.145,0.225,0.221,0.224,0.125,0.079,west,10.8,No
2022/01/14,04:50,0.156,0.145,0.227,0.221,0.224,0.124,0.079,west-northwest,9.3,No
2022/01/14,05:00,0.156,0.146,0.226,0.220,0.224,0.124,0.079,west-northwest,8.9,No
2022/01/14,05:10,0.156,0.145,0.225,0.220,0.224,0.124,0.079,west-northwest,6.7,No
2022/01/14,05:20,0.155,0.145,0.226,0.221,0.224,0.124,0.079,west-northwest,7.4,No
2022/01/14,05:30,0.156,0.146,0.225,0.219,0.224,0.124,0.079,west-northwest,6.5,No
2022/01/14,05:40,0.156,0.146,0.225,0.221,0.224,0.124,0.079,west-northwest,6.2,No
2022/01/14,05:50,0.156,0.146,0.225,0.220,0.224,0.124,0.079,west,7.6,No
2022/01/14,06:00,0.156,0.146,0.226,0.220,0.223,0.123,0.079,northwest,4.7,No
2022/01/14,06:10,0.155,0.146,0.224,0.219,0.223,0.125,0.079,west-northwest,7.2,No
2022/01/14,06:20,0.156,0.145,0.226,0.220,0.224,0.124,0.079,west-northwest,8.6,No
2022/01/14,06:30,0.156,0.145,0.226,0.219,0.224,0.124,0.079,west,9.0,No
2022/01/14,06:40,0.156,0.146,0.225,0.220,0.225,0.124,0.079,west,10.7,No
2022/01/14,06:50,0.156,0.146,0.226,0.221,0.225,0.124,0.078,west,9.5,No
2022/01/14,07:00,0.156,0.145,0.225,0.219,0.223,0.124,0.079,west-northwest,8.7,No
2022/01/14,07:10,0.156,0.146,0.227,0.219,0.224,0.124,0.079,west-northwest,9.5,No
2022/01/14,07:20,0.157,0.146,0.226,0.220,0.225,0.124,0.079,west-northwest,7.1,No
2022/01/14,07:30,0.156,0.146,0.225,0.219,0.224,0.125,0.079,west-northwest,5.7,No
2022/01/14,07:40,0.156,0.146,0.226,0.219,0.225,0.125,0.079,west,5.7,No
2022/01/14,07:50,0.157,0.145,0.226,0.219,0.225,0.124,0.079,west,5.4,No
2022/01/14,08:00,0.156,0.145,0.226,0.219,0.224,0.124,0.079,west-northwest,7.1,No
2022/01/14,08:10,0.156,0.146,0.225,0.220,0.224,0.124,0.079,west-northwest,4.7,No
2022/01/14,08:20,0.157,0.145,0.225,0.220,0.224,0.123,0.079,northwest,4.9,No
2022/01/14,08:30,0.156,0.145,0.225,0.220,0.223,0.123,0.079,west,7.2,No
2022/01/14,08:40,0.156,0.146,0.226,0.220,0.224,0.124,0.079,west,6.7,No
2022/01/14,08:50,0.157,0.145,0.225,0.219,0.224,0.123,0.079,west,6.2,No
2022/01/14,09:00,0.155,0.146,0.226,0.220,0.223,0.124,0.079,west-northwest,6.4,No
2022/01/14,09:10,0.156,0.146,0.225,0.219,0.223,0.123,0.079,west-northwest,6.1,No
2022/01/14,09:20,0.156,0.145,0.226,0.220,-,0.124,0.079,northwest,5.7,No
2022/01/14,09:30,0.156,0.145,0.226,0.220,-,0.124,0.078,west-northwest,6.0,No
2022/01/14,09:40,0.156,0.145,0.225,0.220,-,0.123,0.078,west-northwest,6.0,No
2022/01/14,09:50,0.156,0.146,0.224,0.219,-,0.124,0.078,west-northwest,7.9,No
2022/01/14,10:00,0.156,0.145,0.224,0.218,-,0.124,0.079,west-northwest,7.6,No
2022/01/14,10:10,0.156,0.146,0.227,0.219,-,0.125,0.079,west-northwest,7.6,No
2022/01/14,10:20,0.156,0.146,0.225,0.220,-,0.124,0.079,west,8.0,No
2022/01/14,10:30,0.156,0.145,0.225,0.220,-,0.123,0.079,west,9.8,No
2022/01/14,10:40,0.155,0.145,0.224,0.220,-,0.124,0.079,west-northwest,8.0,No
2022/01/14,10:50,0.156,0.145,0.225,0.220,-,0.124,0.079,west,7.6,No
2022/01/14,11:00,0.156,0.145,0.224,0.220,-,0.125,0.079,west-northwest,8.5,No
2022/01/14,11:10,0.156,0.146,0.225,0.220,-,0.124,0.079,west-northwest,7.3,No
2022/01/14,11:20,0.156,0.146,0.225,0.219,-,0.124,0.079,west-northwest,7.3,No
2022/01/14,11:30,0.155,0.146,0.225,0.219,-,0.125,0.079,west-northwest,8.4,No
2022/01/14,11:40,0.156,0.145,0.225,0.221,-,0.125,0.078,west-northwest,8.5,No
2022/01/14,11:50,0.157,0.146,0.227,0.221,-,0.124,0.079,west,11.7,No
2022/01/14,12:00,0.156,0.147,0.224,0.219,-,0.124,0.079,northwest,8.3,No
2022/01/14,12:10,0.156,0.146,0.226,0.221,-,0.124,0.079,west-northwest,7.5,No
2022/01/14,12:20,0.156,0.146,0.226,0.221,0.221,0.124,0.078,west-northwest,7.0,No
2022/01/14,12:30,0.156,0.145,0.226,0.220,0.221,0.125,0.078,west-northwest,8.1,No
2022/01/14,12:40,0.156,0.146,0.225,0.220,0.223,0.123,0.079,northwest,8.5,No
2022/01/14,12:50,0.155,0.146,0.225,0.221,0.221,0.125,0.078,west-northwest,8.4,No
2022/01/14,13:00,0.157,0.146,0.225,0.220,0.220,0.124,0.079,west-northwest,7.8,No
2022/01/14,13:10,0.156,0.146,0.226,0.220,0.223,0.124,0.078,west-northwest,9.7,No
2022/01/14,13:20,0.156,0.145,0.226,0.220,0.223,0.124,0.078,west-northwest,11.7,No
2022/01/14,13:30,0.156,0.146,0.225,0.220,0.221,0.125,0.079,west-northwest,10.9,No
2022/01/14,13:40,0.156,0.146,0.226,0.221,0.222,0.125,0.079,west-northwest,10.4,No
2022/01/14,13:50,0.156,0.146,0.225,0.221,0.222,0.124,0.079,west-northwest,11.0,No
2022/01/14,14:00,0.156,0.146,-,0.220,0.222,0.123,0.079,west-northwest,10.7,No
2022/01/14,14:10,0.156,0.146,-,0.220,0.221,0.124,0.079,west-northwest,10.7,No
2022/01/14,14:20,0.157,0.146,-,0.220,0.224,0.124,0.079,west-northwest,11.8,No
2022/01/14,14:30,0.156,0.146,-,0.222,0.221,0.124,0.078,west-northwest,6.8,No
2022/01/14,14:40,0.157,0.145,-,0.222,0.222,0.125,0.079,west-northwest,7.7,No
2022/01/14,14:50,0.157,0.146,-,0.220,0.223,0.125,0.079,northwest,5.2,No
2022/01/14,15:00,0.157,0.146,-,0.220,0.221,0.124,0.080,west,4.4,No
2022/01/14,15:10,0.157,0.146,-,0.222,0.222,0.124,0.080,northwest,5.5,No
2022/01/14,15:20,0.157,0.146,-,0.222,0.223,0.125,0.079,west-northwest,5.2,No
2022/01/14,15:30,0.157,0.146,-,0.221,0.224,0.124,0.079,west-northwest,6.0,No
2022/01/14,15:40,0.157,0.146,-,0.221,0.222,0.125,0.079,west-northwest,4.6,No
2022/01/14,15:50,0.157,0.147,-,0.220,0.221,0.125,0.079,northwest,3.8,No
2022/01/14,16:00,0.157,0.145,-,0.221,0.223,0.125,0.079,west-northwest,6.4,No
2022/01/14,16:10,0.157,0.146,-,0.221,0.222,0.124,0.079,west-northwest,4.9,No
2022/01/14,16:20,0.157,0.146,-,0.221,0.221,0.125,0.079,west,4.7,No
2022/01/14,16:30,0.157,0.146,-,0.221,0.222,0.125,0.079,west-northwest,6.8,No
2022/01/14,16:40,0.156,0.146,-,0.221,0.222,0.125,0.080,west-northwest,7.6,No
2022/01/14,16:50,0.157,0.146,-,0.220,0.223,0.125,0.079,west-northwest,5.1,No
2022/01/14,17:00,0.156,0.146,0.226,0.221,0.222,0.125,0.079,west-northwest,4.1,No
2022/01/14,17:10,0.156,0.147,0.225,0.222,0.222,0.125,0.079,west-northwest,1.8,No
2022/01/14,17:20,0.158,0.147,0.226,0.220,0.222,0.125,0.079,northwest,3.0,No
2022/01/14,17:30,0.157,0.146,0.226,0.221,0.222,0.124,0.079,northwest,3.5,No
2022/01/14,17:40,0.157,0.146,0.227,0.222,0.222,0.125,0.078,northwest,3.7,No
2022/01/14,17:50,0.157,0.147,0.227,0.221,0.222,0.124,0.079,north-northwest,5.9,No
2022/01/14,18:00,0.158,0.146,0.227,0.220,0.222,0.124,0.079,northwest,2.4,No
2022/01/14,18:10,0.156,0.147,0.227,0.220,0.221,0.125,0.079,west-northwest,3.2,No
2022/01/14,18:20,0.157,0.146,0.227,0.221,0.223,0.125,0.079,west-northwest,3.0,No
2022/01/14,18:30,0.157,0.147,0.225,0.222,0.221,0.124,0.079,north-northwest,2.2,No
2022/01/14,18:40,0.157,0.147,0.226,0.221,0.223,0.124,0.080,northwest,1.3,No
2022/01/14,18:50,0.157,0.146,0.226,0.222,0.221,0.124,0.080,west-northwest,2.9,No
2022/01/14,19:00,0.157,0.146,0.226,0.221,0.220,0.124,0.079,west-northwest,3.0,No
2022/01/14,19:10,0.157,0.147,0.226,0.221,0.222,0.124,0.080,west-northwest,2.4,No
2022/01/14,19:20,0.157,0.147,0.225,0.221,0.223,0.125,0.080,west-northwest,1.4,No
2022/01/14,19:30,0.156,0.146,0.226,0.221,0.221,0.124,0.079,west,1.0,No
2022/01/14,19:40,0.157,0.146,0.226,0.222,0.220,0.124,0.079,northwest,1.0,No
2022/01/14,19:50,0.156,0.146,0.227,0.221,0.222,0.124,0.079,northwest,0.8,No
2022/01/14,20:00,0.158,0.146,0.226,0.220,0.222,0.124,0.079,northwest,2.9,No
2022/01/14,20:10,0.157,0.146,0.227,0.220,0.223,0.124,0.080,northwest,4.4,No
2022/01/14,20:20,0.156,0.146,0.226,0.221,0.222,0.125,0.079,northwest,1.6,No
2022/01/14,20:30,0.157,0.146,0.225,0.221,0.221,0.125,0.079,west-northwest,3.2,No
2022/01/14,20:40,0.157,0.145,0.225,0.220,0.222,0.124,0.078,northwest,5.4,No
2022/01/14,20:50,0.157,0.147,0.226,0.221,0.221,0.124,0.079,west-northwest,5.5,No
2022/01/14,21:00,0.157,0.146,0.225,0.221,0.223,0.124,0.078,northwest,5.0,No
2022/01/14,21:10,0.158,0.147,0.226,0.220,0.222,0.124,0.079,northwest,7.0,No
2022/01/14,21:20,0.158,0.147,0.226,0.221,0.222,0.124,0.079,northwest,5.2,No
2022/01/14,21:30,0.155,0.146,0.226,0.221,0.222,0.123,0.079,north-northwest,3.0,No
2022/01/14,21:40,0.157,0.146,0.226,0.220,0.221,0.124,0.079,north-northwest,5.4,No
2022/01/14,21:50,0.157,0.147,0.226,0.221,0.222,0.125,0.079,northwest,5.4,No
2022/01/14,22:00,0.157,0.146,0.225,0.220,0.221,0.124,0.078,north-northwest,5.4,No
2022/01/14,22:10,0.156,0.146,0.226,0.220,0.221,0.124,0.079,north-northwest,5.2,No
2022/01/14,22:20,0.157,0.146,0.225,0.221,0.222,0.124,0.078,north-northwest,4.4,No
2022/01/14,22:30,0.157,0.146,0.224,0.220,0.222,0.124,0.079,north-northwest,3.3,No
2022/01/14,22:40,0.156,0.146,0.226,0.221,0.222,0.123,0.078,southeast,2.2,No
2022/01/14,22:50,0.157,0.146,0.226,0.221,0.222,0.124,0.079,west,1.9,No
2022/01/14,23:00,0.158,0.145,0.226,0.221,0.221,0.124,0.078,west-northwest,5.5,No
2022/01/14,23:10,0.156,0.145,0.226,0.220,0.220,0.124,0.079,west,8.7,No
2022/01/14,23:20,0.156,0.145,0.226,0.220,0.221,0.124,0.079,northwest,9.3,No
2022/01/14,23:30,0.155,0.145,0.225,0.220,0.221,0.124,0.079,west-northwest,14.5,No
2022/01/14,23:40,0.156,0.146,0.225,0.220,0.222,0.124,0.079,west,13.5,No
2022/01/14,23:50,0.156,0.146,0.226,0.221,0.221,0.125,0.078,northwest,7.2,No
